This is the latest recevied weather packets stored in our database for station/object AE5HO. If no packets are shown the sender has not sent any weather packets the latest 10 day(s).
| Time | Temp. | Humidity | Pressure | Rain* | Wind** | Luminosity | Snow |
|---|---|---|---|---|---|---|---|
| 1778101699 | 17.22° C | 72% | 1014.2 hPa | 0 mm | - | 120 W/m² | - |
| 1778101395 | 17.78° C | 72% | 1014.3 hPa | 0 mm | - | 128 W/m² | - |
| 1778101092 | 17.22° C | 73% | 1014.1 hPa | 0 mm | - | 128 W/m² | - |
| 1778100788 | 17.22° C | 73% | 1014.1 hPa | 0 mm | - | 139 W/m² | - |
| 1778100485 | 16.67° C | 72% | 1014.3 hPa | 0 mm | - | 113 W/m² | - |
| 1778100183 | 17.22° C | 72% | 1014 hPa | 0 mm | - | 135 W/m² | - |
| 1778099880 | 17.22° C | 72% | 1014 hPa | 0 mm | - | 146 W/m² | - |
| 1778099577 | 17.22° C | 73% | 1014.6 hPa | 0 mm | - | 144 W/m² | - |
| 1778099274 | 17.22° C | 73% | 1014.4 hPa | 0 mm | - | 168 W/m² | - |
| 1778098971 | 17.22° C | 72% | 1014.6 hPa | 0 mm | - | 160 W/m² | - |
| 1778098667 | 16.67° C | 73% | 1014.4 hPa | 0 mm | - | 172 W/m² | - |
| 1778098364 | 16.67° C | 73% | 1014.2 hPa | 0 mm | - | 171 W/m² | - |
| 1778098061 | 16.67° C | 73% | 1014.7 hPa | 0 mm | - | 165 W/m² | - |
| 1778097758 | 16.67° C | 74% | 1014.8 hPa | 0 mm | - | 153 W/m² | - |
| 1778097454 | 16.67° C | 73% | 1015 hPa | 0 mm | - | 174 W/m² | - |
| 1778097151 | 16.67° C | 73% | 1014.9 hPa | 0 mm | - | 187 W/m² | - |
| 1778096848 | 16.11° C | 75% | 1015.1 hPa | 0 mm | - | 188 W/m² | - |
| 1778096544 | 15.56° C | 75% | 1015.2 hPa | 0 mm | - | 171 W/m² | - |
| 1778096242 | 16.11° C | 75% | 1015.2 hPa | 0 mm | - | 119 W/m² | - |
| 1778095939 | 15.56° C | 76% | 1015.4 hPa | 0 mm | - | 113 W/m² | - |
| 1778095636 | 15.56° C | 76% | 1015.5 hPa | 0 mm | - | 88 W/m² | - |
| 1778095332 | 15.56° C | 75% | 1015.1 hPa | 0 mm | - | 121 W/m² | - |
| 1778095029 | 15.56° C | 77% | 1015.2 hPa | 0 mm | - | 142 W/m² | - |
| 1778094725 | 15.56° C | 77% | 1015.5 hPa | 0 mm | - | 77 W/m² | - |
| 1778094423 | 15.56° C | 77% | 1015.5 hPa | 0 mm | - | 95 W/m² | - |
* Rain latest hour (hover to see other rain measurements)
** Current wind speed in m/s (hover to see current wind gust speed)